• Join FlightAware (Why Join?)
  • Login
  • US Flag 
04:07PM EST


 

Airport Tracker/Info


-or-


 

Live Flight TrackerFlight Track Log ✈ SWA2182 ✈ 15-Apr-2013 ✈ KSMF - KSAN

Flight Track Log - Related Links

Times and Time Zones

All times are in EDT time to prevent confusion due to time zone crossing. See the SWA2182 flight status page for this flight to view local times or setup timezone preferences in your user account.

Time Position Orientation Groundspeed Altitude Reporting Facility
EDT Latitude Longitude Course Direction KTS MPH feet Rate Location/Type
09:08AM 38.7500 -121.5833 134° Southeast 192 221 2,800  Level Northern Cal TRACON
09:09AM 38.7000 -121.5333 142° Southeast 238 274 5,800 2,778 Climbing Northern Cal TRACON
09:10AM 38.6500 -121.5000 152° Southeast 273 314 7,800 2,590 Climbing Northern Cal TRACON
09:12AM 38.5781 -121.3553 122° Southeast 327 376 11,800 2,941 Climbing Oakland Center
09:13AM 38.5203 -121.2439 124° Southeast 366 421 15,300 3,322 Climbing Oakland Center
09:14AM 38.3370 -121.3028 134° Southeast  Level Estimated
09:14AM 38.4544 -121.1156 123° Southeast 408 470 18,500  Level Oakland Center
09:15AM 38.3686 -121.0053 135° Southeast 446 513 21,200 2,876 Climbing Oakland Center
09:16AM 38.2536 -120.9344 154° Southeast 456 525 24,300 3,025 Climbing Oakland Center
09:17AM 38.1369 -120.8611 154° Southeast 464 534 27,300 2,529 Climbing Oakland Center
09:18AM 38.0178 -120.7867 154° Southeast 473 544 29,400 2,033 Climbing Oakland Center
09:19AM 37.8950 -120.7125 155° Southeast 485 558 31,400 1,950 Climbing Oakland Center
09:20AM 37.7678 -120.6347 154° Southeast 503 579 33,300 1,983 Climbing Oakland Center
09:21AM 37.6417 -120.5592 155° Southeast 501 577 35,400 1,835 Climbing Oakland Center
09:22AM 37.5158 -120.4819 154° Southeast 502 578 37,000 1,587 Climbing Oakland Center
09:23AM 37.3908 -120.4069 155° Southeast 497 572 38,600 1,388 Climbing Oakland Center
09:24AM 37.2639 -120.3356 156° South 500 575 39,800 1,091 Climbing Oakland Center
09:25AM 37.1392 -120.2600 154° Southeast 495 570 40,800 590 Climbing Oakland Center
09:26AM 37.0136 -120.1861 155° Southeast 497 572 41,000 99 Climbing Oakland Center
09:27AM 36.9031 -120.1203 155° Southeast 491 565 41,000  Level Oakland Center
09:28AM 36.7789 -120.0464 155° Southeast 491 565 41,000  Level Oakland Center
09:29AM 36.6311 -119.9586 155° Southeast 489 563 41,000  Level Oakland Center
09:30AM 36.5092 -119.8867 155° Southeast 485 558 41,000  Level Oakland Center
09:31AM 36.3872 -119.8147 155° Southeast 482 555 41,000  Level Oakland Center
09:32AM 36.2656 -119.7444 155° Southeast 481 554 41,000  Level Oakland Center
09:33AM 36.1439 -119.6736 155° Southeast 480 552 41,000  Level Oakland Center
09:34AM 36.0225 -119.6036 155° Southeast 479 551 41,000  Level Oakland Center
09:35AM 35.9039 -119.5358 155° Southeast 468 539 41,000  Level Oakland Center
09:36AM 35.7811 -119.4664 155° Southeast 479 551 41,000  Level Oakland Center
09:37AM 35.6578 -119.3944 155° Southeast 485 558 41,000  Level Oakland Center
09:38AM 35.5367 -119.3264 155° Southeast 478 550 41,000  Level Los Angeles Center
09:39AM 35.4139 -119.2567 155° Southeast 481 554 41,000  Level Los Angeles Center
09:40AM 35.2944 -119.1889 155° Southeast 476 548 41,000  Level Los Angeles Center
09:41AM 35.1742 -119.1208 155° Southeast 474 545 41,000  Level Los Angeles Center
09:42AM 35.0542 -119.0533 155° Southeast 473 544 41,000  Level Los Angeles Center
09:43AM 34.9342 -118.9864 155° Southeast 474 545 41,000  Level Los Angeles Center
09:44AM 34.8003 -118.9111 155° Southeast 476 548 41,000  Level Los Angeles Center
09:45AM 34.6808 -118.8447 155° Southeast 472 543 41,000  Level Los Angeles Center
09:46AM 34.5617 -118.7800 156° South 470 541 41,000  Level Los Angeles Center
09:47AM 34.4417 -118.7136 155° Southeast 473 544 41,000  Level Los Angeles Center
09:48AM 34.3231 -118.6483 156° South 470 541 41,000  Level Los Angeles Center
09:49AM 34.2053 -118.5831 155° Southeast 467 537 41,000 -178 Level Los Angeles Center
09:50AM 34.0636 -118.5053 156° South 466 536 40,600 -1,551 Descending Los Angeles Center
09:52AM 33.9239 -118.4158 152° Southeast 481 554 37,200 -3,067 Descending Los Angeles Center
09:53AM 33.8086 -118.2783 135° Southeast 493 567 33,700 -3,024 Descending Los Angeles Center
09:54AM 33.7081 -118.1436 132° Southeast 496 571 31,000 -1,463 Descending Los Angeles Center
09:55AM 33.6153 -118.0258 133° Southeast 486 559 30,700 -1,756 Descending Los Angeles Center
09:56AM 33.5233 -117.9100 134° Southeast 479 551 27,400 -3,122 Descending Los Angeles Center
09:57AM 33.4314 -117.7942 134° Southeast 480 552 24,300 -3,247 Descending Los Angeles Center
09:57AM 33.3833 -117.7500 142° Southeast 476 548 22,800 -3,246 Descending Southern California TRACON
09:58AM 33.3406 -117.6806 126° Southeast 473 544 21,000 -3,167 Descending Los Angeles Center
09:58AM 33.2833 -117.6000 130° Southeast 463 533 19,000 -2,553 Descending Southern California TRACON
09:59AM 33.1833 -117.5333 151° Southeast 435 501 17,000 -1,800 Descending Southern California TRACON
10:00AM 33.0833 -117.4500 145° Southeast 387 445 15,400 -1,516 Descending Southern California TRACON
10:01AM 33.0583 -117.4344 152° Southeast 390 449 14,700 -2,217 Descending Los Angeles Center
10:02AM 32.9536 -117.3553 148° Southeast 374 430 12,000 -2,337 Descending Los Angeles Center
10:03AM 32.9167 -117.3167 139° Southeast 367 422 11,000 -1,159 Descending Southern California TRACON
10:03AM 32.8667 -117.2167 121° Southeast 349 402 10,300 -1,011 Descending Southern California TRACON
10:04AM 32.8525 -117.1581 106° East 357 411 9,500 -1,500 Descending Los Angeles Center
10:04AM 32.8333 -117.1167 119° Southeast 371 427 8,800 -1,482 Descending Southern California TRACON
10:05AM 32.8000 -117.0167 112° Southeast 319 367 7,400 -1,240 Descending Southern California TRACON
10:06AM 32.7667 -116.9167 112° Southeast 287 330 6,300 -970 Descending Southern California TRACON
10:07AM 32.7483 -116.8667 114° Southeast 289 333 5,800 -660 Descending Los Angeles Center
10:08AM 32.7719 -116.8083 64° Northeast 255 293 5,200 -390 Descending Los Angeles Center
10:09AM 32.8006 -116.8681 300° West 229 264 5,000 -152 Descending Los Angeles Center
10:09AM 32.8000 -116.9000 269° West 217 250 5,000  Level Southern California TRACON
10:10AM 32.7833 -116.9333 239° Southwest 234 269 5,000  Level Southern California TRACON
10:11AM 32.7167 -116.9500 192° South 232 267 5,000  Level Southern California TRACON
10:12AM 32.6500 -116.9667 192° South 237 273 5,000  Level Southern California TRACON
10:13AM 32.6161 -117.0064 225° Southwest 228 262 5,000  Level Los Angeles Center
10:14AM 32.5947 -117.0711 249° West 215 247 5,000  Level Los Angeles Center
10:15AM 32.5833 -117.1333 258° West 215 247 5,000  Level Southern California TRACON
10:16AM 32.5500 -117.2000 239° Southwest 209 241 5,000  Level Southern California TRACON
10:17AM 32.5333 -117.2667 253° West 211 243 5,000  Level Southern California TRACON
10:18AM 32.5167 -117.3167 248° West 209 241 5,000  Level Southern California TRACON
10:19AM 32.5167 -117.4000 270° West 202 232 5,000  Level Southern California TRACON
10:20AM 32.5500 -117.4500 308° West 216 249 5,000  Level Southern California TRACON
10:21AM 32.6000 -117.4500 360° North 210 242 5,000 -316 Level Southern California TRACON
10:22AM 32.6500 -117.4500 360° North 216 249 4,400 -706 Descending Southern California TRACON
10:23AM 32.6783 -117.4589 345° North 211 243 4,000 -1,034 Descending Los Angeles Center
10:24AM 32.7406 -117.4553 North 231 266 2,900 -968 Descending Los Angeles Center
10:25AM 32.7708 -117.3978 58° Northeast 224 258 2,000 -439 Descending Los Angeles Center
10:26AM 32.7714 -117.3456 89° East 176 203 2,000 -237 Level Los Angeles Center
10:27AM 32.7500 -117.2667 108° East 134 154 1,400 -484 Descending Southern California TRACON
10:28AM 32.7478 -117.2528 101° East 145 167 1,000 -766 Descending Los Angeles Center
10:29AM 32.7392 -117.2139 105° East 132 152 200 -787 Descending Los Angeles Center